Hlavní strana
METAR-TAF:

METAR-TAF

Letiště :

Auburn, Alabama, Spojené státy americké

zeměpisná šířka: 32-37N, zeměpisná délka: 085-26W, výška: 236 m

Aktuální stav počasí

Zpráva byla vytvořena před 43 minutami, v 17:24 UTC
Severoseverozápadní vítr 9 kt
Teplota 7°C
Vlhkost vzduchu 100%
Tlak 1020 hPa
Viditelnost: 2.4 km
Zataženo ve výšce 300 ft
slabý déšť, kouřmo

METAR: KAUO 151724Z AUTO 34009KT 1 1/2SM -RA BR OVC003 07/07 A3013 RMK AO2 P0004

Čas: 12:07 (18:07 UTC)


TAF: chybějící

Stav a předpovědi počasí z více než 4 000 letišť (zprávy METAR a TAF).

Červené a žluté tečky na mapě představují dostupné meteorologické stanice.

Když kurzor umístíte na tečku, zobrazí se název stanice.

Pak kliknutím zobrazíte stav a předpověď počasí.

Chcete-li změnit mapu, kliknutím na zelené tlačítko se znaménkem +mapu přiblížíte, kliknutím na zelené tlačítko se znaménkem – mapu oddálíte a kliknutím na zelené šipky přejdete na sousední mapy.


METAR-TAF: